Paynesville, MN

11:34 AM CDT on April 28, 2017 (GMT -0500)
Paynesville

Weather History for KPEX - February, 2013

Change the Weather History Date:

Monday, February 4, 2013

  Actual Average (KLJF) Record (KLJF)
Temperature  
Mean Temperature 4 °F -  
Max Temperature 17 °F 21 °F 51 °F (1990)
Min Temperature -9 °F 1 °F -25 °F (1982)
Degree Days  
Heating Degree Days 62    
Moisture  
Dew Point 1 °F    
Average Humidity 77    
Maximum Humidity 91    
Minimum Humidity 63    
Precipitation  
Precipitation 0.00 in - - ()
Sea Level Pressure  
Sea Level Pressure 29.92 in    
Wind  
Wind Speed 4 mph (SSE)    
Max Wind Speed 14 mph    
Max Gust Speed 20 mph    
Visibility 9 miles    
Events Snow    
Averages and records for this station are not official NWS values.
T = Trace of Precipitation, MM = Missing Value Source: NWS Daily Summary

Daily Weather History Graph

Daily Weather History Graph

Search for Another Location

Airport or City:

Trip Planner

Search our weather history database for the weather conditions in past years. The results will help you decide how hot, cold, wet, or windy it might be!

Date:

Astronomy

Feb. 04, 2013 Rise Set
Actual Time 7:35 AM CST 5:30 PM CST
Civil Twilight 7:04 AM CST 6:02 PM CST
Nautical Twilight 6:29 AM CST 6:37 PM CST
Astronomical Twilight 5:54 AM CST 7:11 PM CST
Moon 2:15 AM CST (2/4) 11:51 AM CST (2/4)
Length of Visible Light 10h 57m
Length of Day
9h 55m
Last Quarter, 37% of the Moon is Illuminated
Feb 4
Last Quarter
Feb 10
New
Feb 17
First Quarter
Feb 25
Full
Mar 4
Last Quarter

Hourly Weather History & Observations

Time (CST) Temp. Windchill Dew Point Humidity Pressure Visibility Wind Dir Wind Speed Gust Speed Precip Events Conditions
12:13 AM 9.1 °F -0.7 °F 5.0 °F 83% 29.95 in 4.0 mi NNE 5.8 mph - N/A Snow Light Snow
12:33 AM 9.0 °F -0.9 °F 5.4 °F 85% 29.96 in 4.0 mi NNE 5.8 mph - N/A Snow Light Snow
12:53 AM 8.4 °F -0.1 °F 4.8 °F 85% 29.96 in 10.0 mi NNE 4.6 mph - N/A   Overcast
1:13 AM 6.8 °F -2.0 °F 3.2 °F 85% 29.96 in 10.0 mi NNE 4.6 mph - N/A   Overcast
1:33 AM 6.8 °F - 3.2 °F 85% 29.96 in 10.0 mi Calm Calm - N/A   Overcast
1:53 AM 7.0 °F - 3.2 °F 84% 29.96 in 10.0 mi Calm Calm - N/A   Overcast
2:13 AM 7.3 °F - 3.2 °F 83% 29.97 in 10.0 mi Calm Calm - N/A   Overcast
2:33 AM 6.6 °F - 2.3 °F 82% 29.97 in 10.0 mi Calm Calm - N/A   Mostly Cloudy
2:53 AM 5.2 °F -1.9 °F 1.0 °F 83% 29.97 in 10.0 mi North 3.5 mph - N/A   Mostly Cloudy
3:13 AM 5.4 °F -3.6 °F 0.9 °F 82% 29.98 in 10.0 mi North 4.6 mph - N/A   Overcast
4:53 AM 5.0 °F -5.6 °F -1.5 °F 75% 29.99 in 10.0 mi NNE 5.8 mph - N/A   Mostly Cloudy
5:13 AM 3.7 °F -3.6 °F -2.2 °F 76% 30.00 in 10.0 mi North 3.5 mph - N/A   Scattered Clouds
5:33 AM 1.0 °F -8.7 °F -4.4 °F 78% 30.00 in 10.0 mi NNE 4.6 mph - N/A   Scattered Clouds
5:53 AM 1.2 °F - -4.2 °F 78% 30.01 in 10.0 mi Calm Calm - N/A   Scattered Clouds
6:13 AM -1.7 °F - -6.2 °F 81% 30.01 in 10.0 mi Calm Calm - N/A   Scattered Clouds
6:53 AM -2.4 °F - -6.9 °F 81% 30.01 in 10.0 mi Calm Calm - N/A   Clear
7:13 AM -9.0 °F - -13.7 °F 80% 30.01 in 10.0 mi Calm Calm - N/A   Clear
7:33 AM -8.5 °F - -12.1 °F 84% 30.02 in 10.0 mi Calm Calm - N/A   Clear
7:53 AM -8.5 °F - -13.2 °F 80% 30.02 in 10.0 mi Calm Calm - N/A   Scattered Clouds
8:13 AM -8.3 °F - -12.6 °F 81% 30.02 in 10.0 mi Calm Calm - N/A   Overcast
8:33 AM -6.9 °F - -10.7 °F 84% 30.04 in 10.0 mi Calm Calm - N/A   Overcast
8:53 AM -3.8 °F - -7.2 °F 85% 30.04 in 10.0 mi Calm Calm - N/A   Overcast
9:13 AM -1.1 °F - -4.5 °F 85% 30.04 in 10.0 mi Calm Calm - N/A   Overcast
9:33 AM 0.5 °F - -2.7 °F 86% 30.04 in 10.0 mi Calm Calm - N/A   Overcast
9:53 AM 2.3 °F - -3.3 °F 77% 30.03 in 10.0 mi Calm Calm - N/A   Overcast
10:13 AM 3.7 °F - -4.0 °F 70% 30.04 in 10.0 mi Calm Calm - N/A   Overcast
10:33 AM 4.8 °F - -3.8 °F 68% 30.02 in 10.0 mi Calm Calm - N/A   Overcast
10:53 AM 5.7 °F -3.2 °F -2.6 °F 69% 30.01 in 10.0 mi East 4.6 mph - N/A   Overcast
11:13 AM 6.3 °F - -2.4 °F 68% 30.01 in 10.0 mi Calm Calm - N/A   Overcast
11:33 AM 6.8 °F -0.1 °F -2.4 °F 66% 30.01 in 10.0 mi SE 3.5 mph - N/A   Overcast
11:53 AM 7.5 °F - -1.7 °F 66% 30.01 in 10.0 mi Calm Calm - N/A   Overcast
12:13 PM 8.4 °F - -1.5 °F 64% 30.00 in 10.0 mi Calm Calm - N/A   Overcast
12:33 PM 8.8 °F -2.4 °F -0.9 °F 65% 29.99 in 10.0 mi South 6.9 mph - N/A   Overcast
12:53 PM 8.6 °F -4.7 °F -1.7 °F 63% 29.99 in 10.0 mi SSW 9.2 mph - N/A   Overcast
1:13 PM 8.6 °F -4.7 °F -0.6 °F 66% 29.97 in 10.0 mi South 9.2 mph - N/A   Overcast
1:33 PM 8.8 °F -6.1 °F 0.1 °F 68% 29.93 in 10.0 mi South 11.5 mph 19.6 mph N/A   Mostly Cloudy
1:53 PM 10.2 °F -1.7 °F 0.5 °F 65% 29.93 in 10.0 mi SSW 8.1 mph - N/A   Scattered Clouds
2:13 PM 10.9 °F 0.2 °F 1.2 °F 65% 29.94 in 10.0 mi South 6.9 mph - N/A   Clear
2:33 PM 10.9 °F -0.8 °F 1.2 °F 65% 29.94 in 10.0 mi SSW 8.1 mph - N/A   Clear
2:53 PM 10.6 °F 1.0 °F 1.0 °F 65% 29.93 in 10.0 mi SW 5.8 mph - N/A   Clear
3:13 PM 10.6 °F -0.2 °F 1.2 °F 66% 29.93 in 10.0 mi SSW 6.9 mph - N/A   Clear
3:33 PM 10.2 °F -0.6 °F 1.0 °F 66% 29.93 in 10.0 mi SW 6.9 mph - N/A   Clear
3:53 PM 10.0 °F 0.4 °F 1.4 °F 68% 29.93 in 10.0 mi SSW 5.8 mph - N/A   Scattered Clouds
4:13 PM 10.0 °F -1.9 °F 1.8 °F 69% 29.92 in 10.0 mi South 8.1 mph - N/A   Mostly Cloudy
4:33 PM 9.9 °F -3.1 °F 1.9 °F 70% 29.91 in 10.0 mi South 9.2 mph - N/A   Mostly Cloudy
4:53 PM 9.1 °F -1.9 °F 1.6 °F 71% 29.89 in 10.0 mi South 6.9 mph - N/A   Scattered Clouds
5:13 PM 8.8 °F -2.4 °F 2.1 °F 74% 29.88 in 10.0 mi SSE 6.9 mph - N/A   Clear
5:33 PM 8.8 °F -2.4 °F 2.3 °F 75% 29.87 in 10.0 mi SSE 6.9 mph - N/A   Mostly Cloudy
5:53 PM 8.6 °F -2.6 °F 2.3 °F 76% 29.85 in 10.0 mi SE 6.9 mph - N/A   Overcast
6:13 PM 8.6 °F -1.3 °F 2.7 °F 77% 29.84 in 10.0 mi SSE 5.8 mph - N/A   Mostly Cloudy
6:33 PM 8.6 °F -2.6 °F 2.8 °F 77% 29.83 in 10.0 mi SSE 6.9 mph - N/A   Scattered Clouds
6:53 PM 8.6 °F -3.7 °F 3.2 °F 79% 29.82 in 10.0 mi SSE 8.1 mph - N/A   Mostly Cloudy
7:13 PM 9.1 °F -4.0 °F 3.2 °F 77% 29.82 in 10.0 mi SSE 9.2 mph - N/A   Overcast
7:33 PM 9.3 °F -0.5 °F 3.6 °F 77% 29.82 in 10.0 mi SSE 5.8 mph - N/A   Overcast
7:53 PM 9.3 °F 1.0 °F 3.7 °F 78% 29.83 in 10.0 mi South 4.6 mph - N/A   Overcast
8:13 PM 9.5 °F -1.5 °F 4.1 °F 79% 29.82 in 10.0 mi South 6.9 mph - N/A   Overcast
8:33 PM 9.9 °F -1.1 °F 5.0 °F 81% 29.81 in 4.0 mi SSE 6.9 mph - N/A Snow Light Snow
8:53 PM 10.0 °F -2.9 °F 6.3 °F 85% 29.79 in 1.8 mi South 9.2 mph - N/A Snow Light Snow
9:13 PM 10.2 °F -2.7 °F 6.8 °F 86% 29.78 in 3.0 mi SSE 9.2 mph - N/A Snow Light Snow
9:33 PM 10.9 °F -2.6 °F 7.5 °F 86% 29.76 in 7.0 mi South 10.4 mph - N/A Snow Light Snow
9:53 PM 12.2 °F -0.2 °F 9.1 °F 88% 29.74 in 7.0 mi South 9.2 mph 16.1 mph N/A Snow Light Snow
10:13 PM 13.3 °F -0.5 °F 10.4 °F 88% 29.72 in 4.0 mi South 11.5 mph - N/A Snow Light Snow
10:33 PM 14.0 °F 1.2 °F 11.3 °F 89% 29.70 in 7.0 mi South 10.4 mph 17.3 mph N/A   Overcast
10:53 PM 14.7 °F 2.1 °F 12.2 °F 90% 29.69 in 7.0 mi South 10.4 mph 16.1 mph N/A   Overcast
11:13 PM 15.6 °F 4.0 °F 13.1 °F 90% 29.68 in 7.0 mi South 9.2 mph - N/A   Overcast
11:33 PM 16.5 °F 6.0 °F 14.0 °F 90% 29.67 in 10.0 mi South 8.1 mph - N/A   Overcast
11:53 PM 17.1 °F 3.0 °F 14.7 °F 91% 29.67 in 10.0 mi South 13.8 mph - N/A   Overcast